Regional Weather Roundup
Issued by NWS

Home | Current Version | Previous Version | Graphics & Text | Print | Product List | Glossary On
Versions: 1 2 3 4 5 6 7 8 9 10 11 12 13 14 15 16 17 18 19 20 21 22 23 24 25 26 27 28 29 30 31 32 33 34 35 36 37 38 39 40 41 42 43 44 45 46 47 48 49 50
000
ASUS45 KCYS 030210
RWRWY

WYOMING REGIONAL WEATHER ROUNDUP
NATIONAL WEATHER SERVICE CHEYENNE WY
800 PM MDT WED SEP 02 2015

NOTE:  "FAIR" INDICATES FEW OR NO CLOUDS BELOW 12,000 FEET
WITH NO SIGNIFICANT WEATHER AND/OR OBSTRUCTIONS TO VISIBILITY.

WYZ001-030300-
YELLOWSTONE NATIONAL PARK

CITY           SKY/WX    TMP DP  RH WIND       PRES   REMARKS
LK YELLOWSTONE   N/A     61  38  42 CALM      30.11S
W YELLOWSTONE  NOT AVBL

$$
WYZ002>013-054>058-071-098>099-030300-
NORTHERN WYOMING

CITY           SKY/WX    TMP DP  RH WIND       PRES   REMARKS
JACKSON        FAIR      68  37  32 S8        30.00S
CODY           FAIR      79  32  18 SW7       29.83S
GREYBULL       FAIR      88  28  11 S10       29.72S
WORLAND        FAIR      78  32  18 S9        29.76S
SHERIDAN       FAIR      74  37  26 SW8       29.75S
BUFFALO        FAIR      80  32  17 S7        29.86S
GILLETTE       FAIR      78  34  20 S12       29.82S
HULETT         FAIR      77  36  22 S7        29.83R
NEWCASTLE      FAIR      79  32  18 SE5       29.86R

$$
WYZ014>020-022>026-101>103-030300-
CENTRAL WYOMING

CITY           SKY/WX    TMP DP  RH WIND       PRES   REMARKS
BIG PINEY      FAIR      66  38  35 SW10      30.09S
PINEDALE       FAIR      70  34  26 SW10      30.09S
DUBOIS         FAIR      70  30  23 W7        30.05R
LANDER         FAIR      78  32  18 SW13      29.91S
RIVERTON       FAIR      81  30  15 SW13      29.91R
CASPER         FAIR      74  35  24 SW7       29.94S
DOUGLAS        FAIR      77  33  20 SW6       29.93S

$$
WYZ021-027>030-104>119-030300-
SOUTHERN WYOMING

CITY           SKY/WX    TMP DP  RH WIND       PRES   REMARKS
EVANSTON       FAIR      70  32  24 S12       30.09F
KEMMERER       FAIR      68  32  26 W7        30.12S
FORT BRIDGER   CLEAR     73  32  21 W12G18    30.12S
ROCK SPRINGS   MOCLDY    70  39  32 SW9       30.07F
DIXON          FAIR      73  42  32 S10       30.14R
RAWLINS        FAIR      73  37  27 S12       30.10S
SARATOGA       FAIR      68  37  32 S9        30.15S
LARAMIE        FAIR      68  40  35 SW14      30.16R
CHEYENNE       FAIR      78  40  25 SW6       30.06S
TORRINGTON     FAIR      78  49  35 SE7       29.88S
PINE BLUFFS    FAIR      73  39  29 SE3       30.00R

$$


USA.gov is the U.S. government's official web portal to all federal, state and local government web resources and services.